TimePDT,TemperatureF,Dew PointF,Humidity,Sea Level PressureIn,VisibilityMPH,Wind Direction,Wind SpeedMPH,Gust SpeedMPH,PrecipitationIn,Events,Conditions,WindDirDegrees,DateUTC
12:53 AM,72.0,37.0,28,29.83,10.0,NNE,6.9,-,N/A,,Clear,20,2013-06-30 07:53:00
1:53 AM,68.0,37.0,32,29.83,10.0,West,3.5,-,N/A,,Clear,270,2013-06-30 08:53:00
2:53 AM,61.0,37.0,41,29.85,10.0,South,10.4,-,N/A,,Clear,180,2013-06-30 09:53:00
3:53 AM,55.9,34.0,44,29.87,10.0,SSE,12.7,-,N/A,,Clear,160,2013-06-30 10:53:00
4:53 AM,54.0,34.0,47,29.90,10.0,South,11.5,-,N/A,,Clear,180,2013-06-30 11:53:00
5:53 AM,54.0,34.0,47,29.91,10.0,SSE,9.2,-,N/A,,Clear,160,2013-06-30 12:53:00
6:53 AM,64.0,36.0,35,29.90,10.0,South,8.1,-,N/A,,Clear,170,2013-06-30 13:53:00
7:53 AM,71.1,39.0,31,29.91,10.0,South,6.9,-,N/A,,Clear,170,2013-06-30 14:53:00
8:53 AM,79.0,37.0,22,29.92,10.0,NNE,4.6,-,N/A,,Clear,30,2013-06-30 15:53:00
9:53 AM,82.9,37.9,20,29.89,10.0,North,9.2,-,N/A,,Clear,360,2013-06-30 16:53:00
10:53 AM,90.0,37.0,15,29.88,10.0,Variable,4.6,-,N/A,,Clear,0,2013-06-30 17:53:00
11:53 AM,93.9,36.0,13,29.83,10.0,NW,6.9,-,N/A,,Clear,320,2013-06-30 18:53:00
12:53 PM,96.1,30.0,10,29.80,10.0,Variable,5.8,-,N/A,,Clear,0,2013-06-30 19:53:00
1:53 PM,93.0,30.0,11,29.81,10.0,WSW,19.6,32.2,N/A,,Clear,240,2013-06-30 20:53:00
2:00 PM,91.4,30.2,11,30.19,10.0,West,18.4,29.9,N/A,,Clear,260,2013-06-30 21:00:00
2:53 PM,86.0,34.0,16,29.89,10.0,South,10.4,34.5,0.00,,Scattered Clouds,190,2013-06-30 21:53:00
3:53 PM,90.0,28.9,11,29.84,10.0,SE,13.8,20.7,N/A,,Clear,140,2013-06-30 22:53:00
4:53 PM,91.0,30.0,11,29.83,10.0,Variable,5.8,-,N/A,,Clear,0,2013-06-30 23:53:00
5:53 PM,91.0,30.9,12,29.83,10.0,Variable,4.6,-,N/A,,Clear,0,2013-07-01 00:53:00
6:53 PM,89.1,34.0,14,29.82,10.0,NW,11.5,19.6,N/A,,Clear,320,2013-07-01 01:53:00
7:53 PM,84.0,33.1,16,29.82,10.0,West,6.9,-,N/A,,Clear,280,2013-07-01 02:53:00
8:53 PM,81.0,33.1,18,29.82,10.0,NE,5.8,-,N/A,,Clear,50,2013-07-01 03:53:00
9:53 PM,73.9,34.0,23,29.84,10.0,South,6.9,-,N/A,,Clear,170,2013-07-01 04:53:00
10:53 PM,72.0,35.1,26,29.86,10.0,SSE,8.1,-,N/A,,Clear,160,2013-07-01 05:53:00
11:53 PM,69.1,36.0,30,29.85,10.0,South,6.9,-,N/A,,Clear,170,2013-07-01 06:53:00